AB1OC Weather Reports


Display with metric or nautical units.
time (UTC)temp
F
wind
direction
speed
MPH
gust
MPH
rain 1hr
in
rain 24hr
in
rain mn
in
humidity
%
barometer
mb
20200401121545 0 0.0 0.0 0.00 0.00 0.00 1013.0
20200401120011 0 0.0 0.0 0.00 0.00 0.00 1013.1
20200401114514 0 0.0 0.0 0.00 0.00 0.00 1012.9
20200401111517 0 0.0 0.0 0.00 0.00 0.00 1012.7
20200401110008 0 0.0 0.0 0.00 0.00 0.00 1012.7
20200401104636 0 0.0 0.0 0.00 0.00 0.00 1012.7
20200401103253 0 0.0 0.0 0.00 0.00 0.00 1012.8
20200401101708 0 0.0 0.0 0.00 0.00 0.00 1012.9
20200401100114 0 0.0 0.0 0.00 0.00 0.00 1012.9
20200401094610 0 0.0 0.0 0.00 0.00 0.00 1013.1
20200401093107 0 0.0 0.0 0.00 0.00 0.00 1013.3
20200401091802 0 0.0 0.0 0.00 0.00 0.00 1013.5
20200401090136 0 0.0 0.0 0.00 0.00 0.00 1013.5
20200401084629 0 0.0 0.0 0.00 0.00 0.00 1013.4
20200401083138 26 288 0.0 1.0 0.00 0.00 0.00 97 1013.7
20200401081618 26 288 0.0 0.0 0.00 0.00 0.00 96 1013.7
20200401080124 27 288 0.0 0.0 0.00 0.00 0.00 96 1014.0
20200401074643 27 288 0.0 0.0 0.00 0.00 0.00 97 1014.2
20200401073044 26 240 0.0 0.0 0.00 0.00 0.00 96 1014.2
20200401071541 26 240 0.0 0.0 0.00 0.00 0.00 96 1014.3
20200401070208 26 237 0.0 1.0 0.00 0.00 0.00 96 1014.1
20200401064621 27 100 0.0 0.0 0.00 0.00 0.00 96 1014.3
20200401063044 27 91 0.0 0.0 0.00 0.00 0.00 96 1014.1
20200401061556 27 92 0.0 0.0 0.00 0.00 0.00 96 1014.1
20200401060038 27 92 0.0 1.0 0.00 0.00 0.00 96 1014.5
20200401054536 26 92 0.0 0.0 0.00 0.01 0.00 95 1014.8
20200401053045 27 92 0.0 0.0 0.00 0.01 0.00 95 1015.3
20200401051544 27 92 0.0 0.0 0.00 0.01 0.00 95 1015.4
20200401050051 28 91 0.0 0.0 0.00 0.01 0.00 95 1015.6
20200401044543 28 92 0.0 0.0 0.00 0.01 0.01 95 1015.6
20200401043011 28 91 0.0 0.0 0.00 0.01 0.01 95 1015.7
20200401041514 28 92 0.0 0.0 0.00 0.01 0.01 95 1015.7
20200401040033 28 92 0.0 0.0 0.00 0.01 0.01 95 1016.0
20200401034543 28 92 0.0 0.0 0.00 0.01 0.01 94 1016.3
20200401033019 29 92 0.0 0.0 0.00 0.01 0.01 93 1016.6
20200401031527 29 92 0.0 1.0 0.00 0.01 0.01 93 1016.6
20200401030023 29 92 0.0 0.0 0.00 0.01 0.01 92 1016.9
20200401024510 30 91 0.0 1.0 0.00 0.02 0.01 91 1016.8
20200401023340 30 91 0.0 0.0 0.00 0.02 0.01 89 1016.9
20200401021503 31 91 0.0 0.0 0.00 0.02 0.01 89 1016.9
20200401020203 31 91 0.0 0.0 0.00 0.02 0.01 88 1017.0
20200401020003 31 92 0.0 0.0 0.00 0.02 0.01 88 1017.1
20200401014726 32 91 0.0 0.0 0.00 0.02 0.01 85 1017.1
20200401013125 33 92 0.0 2.0 0.00 0.02 0.01 84 1017.2
20200401011635 34 92 0.0 2.0 0.00 0.02 0.01 84 1017.2
20200401010206 34 89 0.0 1.0 0.00 0.02 0.01 83 1017.4
20200401004717 35 81 0.0 1.0 0.00 0.02 0.01 82 1017.3
20200401003113 36 67 0.0 1.0 0.00 0.02 0.01 80 1017.2
20200401001628 36 94 0.0 2.0 0.00 0.02 0.01 79 1017.0
20200401000210 0 0.0 0.0 0.00 0.02 0.01 1016.8
20200331234555 0 0.0 0.0 0.00 0.03 0.01 1016.5
20200331233212 39 137 0.0 3.0 0.00 0.03 0.01 73 1016.4
20200331231734 40 116 0.0 4.0 0.00 0.03 0.01 72 1016.3
20200331230153 41 47 1.0 5.0 0.00 0.03 0.01 69 1016.3
20200331224622 42 86 1.0 7.0 0.00 0.05 0.01 67 1016.3
20200331221612 48 72 1.0 3.0 0.00 0.05 0.01 44 1015.8
20200331220106 48 68 0.0 3.0 0.00 0.05 0.01 43 1015.9
20200331214553 48 352 1.0 4.0 0.00 0.08 0.01 44 1015.8
20200331213128 48 77 1.0 3.0 0.00 0.08 0.01 43 1015.7
20200331211624 48 55 0.0 4.0 0.00 0.08 0.01 45 1015.8
20200331210120 48 344 2.0 5.0 0.00 0.08 0.01 43 1016.0
20200331204622 48 44 2.0 5.0 0.00 0.11 0.01 43 1016.3
20200331203119 48 287 0.0 4.0 0.00 0.11 0.01 44 1016.4
20200331201548 48 351 0.0 6.0 0.00 0.11 0.01 46 1016.4
20200331200102 48 288 0.0 3.0 0.00 0.11 0.01 46 1016.7
20200331194639 47 212 2.0 7.0 0.00 0.12 0.01 45 1016.5
20200331193129 47 49 1.0 6.0 0.00 0.12 0.01 46 1016.6
20200331191600 47 49 1.0 5.0 0.00 0.12 0.01 48 1016.6
20200331190059 46 360 1.0 5.0 0.00 0.12 0.01 51 1016.5
20200331184533 46 71 1.0 5.0 0.00 0.12 0.01 50 1016.7
20200331183255 45 84 1.0 7.0 0.00 0.12 0.01 53 1016.9
20200331181531 45 81 2.0 6.0 0.00 0.12 0.01 53 1017.1
20200331180119 44 8 2.0 7.0 0.00 0.12 0.01 54 1017.3
20200331174524 43 53 4.0 8.0 0.00 0.12 0.01 55 1017.4
20200331173034 43 78 1.0 6.0 0.00 0.12 0.01 59 1017.4
20200331171543 43 20 2.0 5.0 0.00 0.12 0.01 58 1017.4
20200331170028 42 267 1.0 6.0 0.00 0.12 0.01 59 1017.5
20200331164523 42 356 1.0 4.0 0.00 0.12 0.01 63 1017.5
20200331163022 41 13 1.0 4.0 0.00 0.12 0.01 63 1018.0
20200331161513 41 58 1.0 6.0 0.00 0.12 0.01 63 1018.1
20200331160017 40 79 2.0 4.0 0.00 0.12 0.01 64 1018.3
20200331154507 39 37 2.0 10.0 0.00 0.12 0.01 64 1018.7
20200331153003 38 336 3.0 11.0 0.00 0.12 0.01 67 1018.9
20200331151507 38 346 1.0 5.0 0.00 0.12 0.01 73 1019.1
20200331150003 39 5 1.0 6.0 0.00 0.12 0.01 73 1019.3
20200331144627 38 297 3.0 8.0 0.00 0.12 0.01 75 1019.5
20200331143157 35 356 3.0 7.0 0.00 0.12 0.01 84 1019.8
20200331141656 35 348 1.0 8.0 0.00 0.12 0.01 85 1020.0
20200331140217 34 16 1.0 7.0 0.00 0.12 0.01 87 1020.1
20200331134659 34 317 1.0 4.0 0.00 0.12 0.01 89 1020.3
20200331133129 34 325 0.0 3.0 0.00 0.12 0.01 90 1020.3
20200331131605 34 58 0.0 7.0 0.00 0.12 0.01 90 1020.4
20200331130215 34 330 1.0 4.0 0.00 0.12 0.01 90 1020.3
20200331124607 33 242 0.0 4.0 0.00 0.12 0.01 92 1020.2
20200331123141 33 347 1.0 4.0 0.00 0.12 0.01 93 1020.3